Find Starlink 2699

NORAD ID: 48433 Int'l Des: 2021-040 Owner: SPXS Country: US Constellation: starlink operational
LEOCIRCULARSTARLINK_TYPE

現在のビュー

3D地球を読み込み中...

About Starlink 2699

Starlink 2699 (NORAD 48433) is a starlink constellation satellite (v1.0) launched May 9, 2021 by SPXS of US. It operates in LEO, CIRCULAR, STARLINK_TYPE orbit with a mass of 260.00 kg.

次回通過

Passes for default location (London). Set your location on the main map for personalized predictions.

高度履歴

Loading altitude history...

軌道要素

1 48433U 21040F 26263.47541898 .00000231 00000-0 19196-4 0 9990
2 48433 53.1598 326.1219 0001436 94.9217 265.1948 15.31704782296870
Epoch: Sep 20, 2026 • Age: 23 hours

現在のステータス

高度 480.2 km
遠地点 / 近地点 N/A
速度 7.62 km/s
衛星直下点 -29.11°S, 135.69°E
打ち上げ日 May 9, 2021
運用期間 5.3 years
タイプ internet

技術仕様

分類 Payload
質量 260.00 kg
乾燥質量 248.00 kg
長さ 0.20 m
スパン 9.00 m
形状 ? Box + pan
製造者 SPXS
バスタイプ Starlink
フェーズステータス In Orbit
所有者/国 SPXS/US

Most Searched